Nampa, ID

9:10 AM MST on December 13, 2019 (GMT -0700)
Nampa

Weather History for KMAN - November, 2019

Change the Weather History Date:

Sunday, November 17, 2019

  Actual Average (KBOI) Record (KBOI)
Temperature  
Mean Temperature 44 °F -  
Max Temperature 59 °F 47 °F 67 °F (1908)
Min Temperature 28 °F 31 °F 6 °F (2014)
Degree Days  
Heating Degree Days 22    
Moisture  
Dew Point 31 °F    
Average Humidity 68    
Maximum Humidity 100    
Minimum Humidity 34    
Precipitation  
Precipitation 0.00 in - - ()
Sea Level Pressure  
Sea Level Pressure 30.28 in    
Wind  
Wind Speed 1 mph (SE)    
Max Wind Speed 6 mph    
Max Gust Speed -    
Visibility 10 miles    
Events      
Averages and records for this station are not official NWS values.
T = Trace of Precipitation, MM = Missing Value Source: NWS Daily Summary

Daily Weather History Graph

Daily Weather History Graph

Search for Another Location

Airport or City:

Astronomy

Nov. 17, 2019 Rise Set
Actual Time 7:42 AM MST 5:19 PM MST
Civil Twilight 7:11 AM MST 5:50 PM MST
Nautical Twilight 6:36 AM MST 6:25 PM MST
Astronomical Twilight 6:02 AM MST 6:59 PM MST
Moon 9:58 PM MST (11/17) 12:34 PM MST (11/17)
Length of Visible Light 10h 39m
Length of Day
9h 36m
Waning Gibbous, 73% of the Moon is Illuminated
Nov 17
Waning Gibbous
Nov 19
Last Quarter
Nov 26
New
Dec 3
First Quarter
Dec 11
Full

Hourly Weather History & Observations

Time (MST) Temp. Windchill Dew Point Humidity Pressure Visibility Wind Dir Wind Speed Gust Speed Precip Events Conditions
12:15 AM 33.8 °F - 32.0 °F 93% 30.35 in 10.0 mi Calm Calm - N/A   Unknown
12:35 AM 32.0 °F 28.7 °F 30.2 °F 93% 30.35 in 10.0 mi SE 3.5 mph - N/A   Unknown
1:15 AM 32.0 °F - 30.2 °F 93% 30.34 in 10.0 mi Calm Calm - N/A   Unknown
1:35 AM 33.8 °F 29.6 °F 30.2 °F 87% 30.34 in 10.0 mi ESE 4.6 mph - N/A   Unknown
1:55 AM 32.0 °F 28.7 °F 28.4 °F 87% 30.34 in 10.0 mi SE 3.5 mph - N/A   Unknown
2:15 AM 30.2 °F 25.4 °F 28.4 °F 93% 30.35 in 10.0 mi SE 4.6 mph - N/A   Unknown
2:35 AM 32.0 °F - 28.4 °F 87% 30.35 in 10.0 mi Calm Calm - N/A   Unknown
2:55 AM 32.0 °F 27.5 °F 30.2 °F 93% 30.36 in 10.0 mi East 4.6 mph - N/A   Unknown
3:15 AM 33.8 °F 30.8 °F 30.2 °F 87% 30.35 in 10.0 mi ESE 3.5 mph - N/A   Unknown
3:35 AM 32.0 °F - 28.4 °F 87% 30.34 in 10.0 mi Calm Calm - N/A   Unknown
3:55 AM 32.0 °F - 30.2 °F 93% 30.34 in 10.0 mi Calm Calm - N/A   Unknown
4:15 AM 32.0 °F - 28.4 °F 87% 30.34 in 10.0 mi Calm Calm - N/A   Unknown
4:35 AM 30.2 °F - 30.2 °F 100% 30.34 in 10.0 mi Calm Calm - N/A   Unknown
4:55 AM 30.2 °F - 28.4 °F 93% 30.33 in 10.0 mi Calm Calm - N/A   Unknown
5:15 AM 30.2 °F - 30.2 °F 100% 30.34 in 10.0 mi Calm Calm - N/A   Unknown
5:35 AM 32.0 °F 28.7 °F 30.2 °F 93% 30.34 in 10.0 mi ESE 3.5 mph - N/A   Unknown
5:55 AM 32.0 °F 28.7 °F 30.2 °F 93% 30.33 in 10.0 mi ESE 3.5 mph - N/A   Unknown
6:15 AM 32.0 °F - 30.2 °F 93% 30.34 in 10.0 mi Calm Calm - N/A   Unknown
6:35 AM 30.2 °F 26.7 °F 28.4 °F 93% 30.33 in 10.0 mi South 3.5 mph - N/A   Unknown
6:55 AM 28.4 °F - 28.4 °F 100% 30.33 in 10.0 mi Calm Calm - N/A   Unknown
7:15 AM 30.2 °F - 30.2 °F 100% 30.33 in 10.0 mi Calm Calm - N/A   Unknown
7:35 AM 30.2 °F - 28.4 °F 93% 30.34 in 10.0 mi Calm Calm - N/A   Clear
7:55 AM 30.2 °F - 28.4 °F 93% 30.34 in 10.0 mi Calm Calm - N/A   Clear
8:15 AM 32.0 °F - 30.2 °F 93% 30.34 in 10.0 mi Calm Calm - N/A   Clear
8:35 AM 32.0 °F - 30.2 °F 93% 30.35 in 10.0 mi Calm Calm - N/A   Clear
8:55 AM 32.0 °F - 30.2 °F 93% 30.35 in 10.0 mi Calm Calm - N/A   Clear
9:15 AM 33.8 °F - 32.0 °F 93% 30.35 in 10.0 mi Calm Calm - N/A   Clear
9:35 AM 37.4 °F - 32.0 °F 81% 30.34 in 10.0 mi Calm Calm - N/A   Clear
9:55 AM 39.2 °F - 32.0 °F 75% 30.34 in 10.0 mi Calm Calm - N/A   Clear
10:15 AM 41.0 °F - 33.8 °F 76% 30.34 in 10.0 mi Calm Calm - N/A   Clear
10:35 AM 42.8 °F - 32.0 °F 66% 30.34 in 10.0 mi Calm Calm - N/A   Clear
10:55 AM 44.6 °F - 32.0 °F 61% 30.33 in 10.0 mi Calm Calm - N/A   Clear
11:15 AM 46.4 °F - 32.0 °F 57% 30.32 in 10.0 mi Calm Calm - N/A   Clear
11:35 AM 48.2 °F - 30.2 °F 50% 30.33 in 10.0 mi Calm Calm - N/A   Clear
11:55 AM 50.0 °F - 32.0 °F 50% 30.31 in 10.0 mi South 3.5 mph - N/A   Clear
12:15 PM 50.0 °F - 32.0 °F 50% 30.31 in 10.0 mi Calm Calm - N/A   Clear
12:35 PM 51.8 °F - 32.0 °F 47% 30.29 in 10.0 mi Calm Calm - N/A   Clear
12:55 PM 53.6 °F - 32.0 °F 44% 30.28 in 10.0 mi Calm Calm - N/A   Clear
1:15 PM 55.4 °F - 30.2 °F 38% 30.26 in 10.0 mi Calm Calm - N/A   Clear
1:35 PM 55.4 °F - 30.2 °F 38% 30.25 in 10.0 mi Variable 4.6 mph - N/A   Clear
1:55 PM 57.2 °F - 30.2 °F 36% 30.25 in 10.0 mi Calm Calm - N/A   Clear
2:15 PM 57.2 °F - 30.2 °F 36% 30.24 in 10.0 mi East 4.6 mph - N/A   Clear
2:35 PM 57.2 °F - 30.2 °F 36% 30.23 in 10.0 mi Calm Calm - N/A   Clear
2:55 PM 59.0 °F - 30.2 °F 34% 30.23 in 10.0 mi Calm Calm - N/A   Clear
3:15 PM 59.0 °F - 30.2 °F 34% 30.22 in 10.0 mi Calm Calm - N/A   Clear
3:35 PM 59.0 °F - 30.2 °F 34% 30.22 in 10.0 mi SE 3.5 mph - N/A   Clear
3:55 PM 57.2 °F - 32.0 °F 38% 30.22 in 10.0 mi SSW 5.8 mph - N/A   Clear
4:15 PM 57.2 °F - 30.2 °F 36% 30.22 in 10.0 mi Calm Calm - N/A   Clear
4:35 PM 55.4 °F - 32.0 °F 41% 30.21 in 8.0 mi Calm Calm - N/A   Clear
4:55 PM 55.4 °F - 30.2 °F 38% 30.21 in 10.0 mi NNW 3.5 mph - N/A   Partly Cloudy
5:15 PM 53.6 °F - 32.0 °F 44% 30.21 in 10.0 mi Calm Calm - N/A   Clear
5:35 PM 51.8 °F - 32.0 °F 47% 30.20 in 8.0 mi Calm Calm - N/A   Mostly Cloudy
5:55 PM 53.6 °F - 32.0 °F 44% 30.21 in 10.0 mi North 4.6 mph - N/A   Unknown
6:15 PM 53.6 °F - 32.0 °F 44% 30.21 in 10.0 mi Calm Calm - N/A   Unknown
6:35 PM 51.8 °F - 32.0 °F 47% 30.21 in 10.0 mi Calm Calm - N/A   Unknown
6:55 PM 51.8 °F - 32.0 °F 47% 30.21 in 10.0 mi North 3.5 mph - N/A   Unknown
7:15 PM 51.8 °F - 32.0 °F 47% 30.21 in 10.0 mi North 4.6 mph - N/A   Unknown
7:35 PM 50.0 °F - 32.0 °F 50% 30.22 in 10.0 mi West 4.6 mph - N/A   Unknown
8:15 PM 48.2 °F - 32.0 °F 54% 30.22 in 10.0 mi WNW 5.8 mph - N/A   Unknown
8:35 PM 48.2 °F - 33.8 °F 58% 30.22 in 10.0 mi Calm Calm - N/A   Unknown
8:55 PM 46.4 °F - 33.8 °F 62% 30.22 in 10.0 mi Calm Calm - N/A   Unknown
9:15 PM 44.6 °F 42.2 °F 33.8 °F 66% 30.22 in 10.0 mi West 4.6 mph - N/A   Unknown
9:35 PM 44.6 °F - 33.8 °F 66% 30.22 in 10.0 mi Calm Calm - N/A   Unknown
9:55 PM 44.6 °F - 33.8 °F 66% 30.22 in 10.0 mi Calm Calm - N/A   Unknown
10:15 PM 44.6 °F 42.2 °F 32.0 °F 61% 30.22 in 10.0 mi WNW 4.6 mph - N/A   Unknown
10:35 PM 42.8 °F - 32.0 °F 66% 30.22 in 10.0 mi Calm Calm - N/A   Unknown
10:55 PM 42.8 °F - 32.0 °F 66% 30.21 in 10.0 mi Calm Calm - N/A   Unknown
11:15 PM 39.2 °F - 32.0 °F 75% 30.21 in 10.0 mi Calm Calm - N/A   Unknown
11:35 PM 39.2 °F - 32.0 °F 75% 30.21 in 10.0 mi Calm Calm - N/A   Unknown
11:55 PM 37.4 °F - 32.0 °F 81% 30.21 in 10.0 mi Calm Calm - N/A   Unknown